Weather History for Newport News, VA

Change the Weather History Date:

Saturday, March 22, 2014

  Actual Average Record
Temperature  
Mean Temperature 66 °F -  
Max Temperature 79 °F 62 °F 83 °F (1968)
Min Temperature 54 °F 40 °F 25 °F (1980)
Cooling Degree Days 1    
Growing Degree Days 16 (Base 50)    
Moisture  
Dew Point 37 °F    
Average Humidity 38    
Maximum Humidity 53    
Minimum Humidity 22    
Precipitation  
Precipitation 0.00 in - - ()
Sea Level Pressure  
Sea Level Pressure 29.95 in    
Wind  
Wind Speed 12 mph (SW)    
Max Wind Speed 18 mph    
Max Gust Speed 25 mph    
Visibility 10 miles    
Events      
Averages and records for this station are not official NWS values.
T = Trace of Precipitation, MM = Missing Value Source: NWS Daily Summary

Daily Weather History Graph

Daily Weather History Graph

Search for Another Location

Airport:

Trip Planner

Search our weather history database for the weather conditions in past years. The results will help you decide how hot, cold, wet, or windy it might be!

Date:

Astronomy

Mar. 22, 2014 Rise Set
Actual Time 7:06 AM EDT 7:19 PM EDT
Civil Twilight 6:40 AM EDT 7:45 PM EDT
Nautical Twilight 6:10 AM EDT 8:16 PM EDT
Astronomical Twilight 5:39 AM EDT 8:46 PM EDT
Moon 12:30 AM EDT (3/22) 10:54 AM EDT (3/22)
Length of Visible Light 13h 04m
Length of Day
12h 13m
Waning Gibbous, 65% of the Moon is Illuminated
Mar 22
Waning Gibbous
Mar 23
Last Quarter
Mar 30
New
Apr 7
First Quarter
Apr 15
Full

Hourly Weather History & Observations

Time (EDT) Temp. Dew Point Humidity Pressure Visibility Wind Dir Wind Speed Gust Speed Precip Events Conditions
12:54 AM 55.9 °F 36.0 °F 47% 30.05 in 10.0 mi SSW 12.7 mph - N/A   Clear
1:54 AM 55.9 °F 35.1 °F 45% 30.04 in 10.0 mi SSW 9.2 mph - N/A   Clear
2:54 AM 55.0 °F 33.1 °F 43% 30.02 in 10.0 mi SSW 9.2 mph - N/A   Clear
3:54 AM 55.0 °F 33.1 °F 43% 30.01 in 10.0 mi SSW 10.4 mph - N/A   Clear
4:54 AM 55.0 °F 30.9 °F 40% 29.99 in 10.0 mi SW 13.8 mph - N/A   Clear
5:54 AM 54.0 °F 33.1 °F 45% 30.01 in 10.0 mi SW 11.5 mph - N/A   Clear
6:54 AM 54.0 °F 35.1 °F 49% 30.00 in 10.0 mi SSW 13.8 mph - N/A   Clear
7:54 AM 55.0 °F 37.9 °F 53% 30.00 in 10.0 mi SSW 13.8 mph - N/A   Clear
8:54 AM 59.0 °F 39.0 °F 48% 29.98 in 10.0 mi SW 16.1 mph - N/A   Clear
9:54 AM 62.1 °F 39.0 °F 43% 29.98 in 10.0 mi SW 16.1 mph - N/A   Clear
10:54 AM 66.9 °F 39.9 °F 37% 29.96 in 10.0 mi SW 13.8 mph 25.3 mph 0.00 in   Clear
11:54 AM 71.1 °F 39.9 °F 32% 29.94 in 10.0 mi SW 16.1 mph 24.2 mph 0.00 in   Clear
12:54 PM 75.9 °F 39.0 °F 26% 29.93 in 10.0 mi SW 17.3 mph - N/A   Clear
1:54 PM 77.0 °F 37.9 °F 24% 29.90 in 10.0 mi SW 16.1 mph 21.9 mph N/A   Clear
2:54 PM 78.1 °F 37.0 °F 23% 29.88 in 10.0 mi WSW 17.3 mph 24.2 mph N/A   Clear
3:54 PM 78.1 °F 36.0 °F 22% 29.86 in 10.0 mi WSW 18.4 mph 25.3 mph N/A   Clear
4:54 PM 77.0 °F 36.0 °F 23% 29.88 in 10.0 mi WSW 17.3 mph 24.2 mph N/A   Clear
5:54 PM 75.9 °F 36.0 °F 23% 29.89 in 10.0 mi WSW 12.7 mph - N/A   Clear
6:54 PM 73.0 °F 37.0 °F 27% 29.90 in 10.0 mi WSW 8.1 mph - N/A   Clear
7:54 PM 69.1 °F 39.0 °F 33% 29.91 in 10.0 mi SW 4.6 mph - N/A   Clear
8:54 PM 66.9 °F 39.0 °F 36% 29.93 in 10.0 mi SSW 5.8 mph - N/A   Clear
9:54 PM 61.0 °F 39.9 °F 46% 29.94 in 10.0 mi SW 3.5 mph - N/A   Partly Cloudy
10:54 PM 57.9 °F 41.0 °F 53% 29.94 in 10.0 mi SSW 3.5 mph - N/A   Mostly Cloudy
11:54 PM 60.1 °F 42.1 °F 51% 29.95 in 10.0 mi SSW 3.5 mph - N/A   Overcast